星链-30261 (STARLINK-30261 )

导读

STARLINK-30261是美国太空探索技术公司星链互联网卫星星座的一员,于2023年8月8日发射升空。它延续星链低轨星座部署思路,加入星座后可协同其他卫星,为全球提供低延迟高速卫星互联网服务,覆盖偏远地区与海上、航空等特殊场景,进一步完善了星链星座的服务覆盖与网络容量。

基本信息
目录编号:
57523
目录名称:
STARLINK-30261
国际标识:
2023-115C
轨道中心:
EARTH
卫星名称:
星链-30261
卫星全名:
星链-30261 (STARLINK-30261 )
卫星状态:
在轨 (已飞行1124 天)
发射日期:
2023-08-08 UTC
国别 :
美国 (US)
星等 :
--
轨道信息
数据来源 国际轨道数据
星历时间: 2026-09-05T05:08:47+0800
17小时前
查看轨道信息
半长轴: 6861.202km
偏心率: 0.0001318
轨道倾角: 43.004°
近地点辐角 269.479°
升交点赤经 69.843°
平近点角 90.591°
近地点: 482.16km
远地点: 483.97km
周期: 94.267分钟
每日圈数: 15.275748
详细信息
固有亮度:
5
最大亮度:
0.3
卫星平台:
Starlink v2.0 mini
覆盖范围:
全球
运营商:
太空探索技术公司
运营商所在国:
美国
制造商(研发单位):
太空探索技术公司
制造商所在国:
美国
使用方式:
暂无
卫星简介
星链(Starlink)计划是由太空探索技术公司(SpaceX)提出的一个巨型低轨卫星互联网星座项目,计划在2019年至2024年间在太空搭建由约1.2万颗卫星组成的“星链”网络,其中1584颗将部署在地球上空550千米处的近地轨道,并从2020年开始工作。该卫星仍在工作。
2D轨道图
3D轨道图
轨道高度分析图
轨道倾角分析图
轨道综合分析图
查看轨道综合分析图
交会数据列表
事件ID 空间交会对象 最接近时刻(TCA) 交会距离 交会风险概率(CRP) 交会风险指数(CRI) 操作
CDM_260906-031105-752306-784623
2026-09-06T
03:11:15+0000
1.028 km
极远距离
1.548972E-5 中风险 0.59
CDM_260906-114905-752306-784622
2026-09-06T
11:49:05+0000
1.077 km
极远距离
1.316464E-5 中风险 0.57
CDM_260906-013705-752306-784622
2026-09-06T
01:37:05+0000
1.959 km
极远距离
1.992292E-6 低风险 0.41
CDM_260906-101405-752306-784622
2026-09-06T
10:14:56+0000
2.897 km
极远距离
9.604348E-7 极低风险 0.35